CW4340 Weather Reports


Display with metric or nautical units.
time (UTC)temp
F
wind
direction
speed
MPH
gust
MPH
rain 1hr
in
rain 24hr
in
rain mn
in
humidity
%
barometer
mb
20260502162504 67 351 0.0 0.0 0.00 1.41 0.00 73 1020.8
20260502162004 66 303 0.0 0.0 0.00 1.41 0.00 73 1020.8
20260502161504 66 340 0.0 0.0 0.00 1.41 0.00 73 1020.9
20260502161005 66 28 0.0 0.0 0.00 1.41 0.00 73 1020.8
20260502160505 65 18 0.0 0.0 0.00 1.41 0.00 75 1021.0
20260502152005 62 21 0.0 0.0 0.00 1.42 0.00 82 1020.6
20260502151505 62 355 0.0 0.0 0.00 1.42 0.00 84 1020.6
20260502150504 60 2 0.0 0.0 0.00 1.44 0.00 89 1020.6
20260502130504 54 316 0.0 0.0 0.00 1.83 0.00 93 1019.4
20260502123005 52 41 0.0 0.0 0.00 1.87 0.00 93 1019.0
20260502122504 52 288 0.0 0.0 0.00 1.87 0.00 93 1018.8
20260502122005 52 288 0.0 0.0 0.00 1.87 0.00 93 1018.6
20260502121504 52 286 0.0 0.0 0.00 1.87 0.00 93 1018.6
20260502121005 52 286 0.0 0.0 0.00 1.87 0.00 93 1018.4
20260502120504 52 286 0.0 0.0 0.00 1.87 0.00 93 1018.2
20260502115005 52 271 0.0 0.0 0.00 1.88 0.00 93 1018.1
20260502114504 52 271 0.0 0.0 0.00 1.88 0.00 93 1018.1
20260502114005 52 271 0.0 0.0 0.00 1.89 0.00 93 1018.0
20260502113504 52 271 0.0 0.0 0.00 1.90 0.00 93 1017.9
20260502112504 52 271 0.0 0.0 0.00 1.92 0.00 93 1018.0
20260502112005 52 271 0.0 0.0 0.00 1.94 0.00 93 1017.8
20260502111504 52 271 0.0 0.0 0.00 1.95 0.00 93 1017.8
20260502111005 52 271 0.0 0.0 0.00 1.97 0.00 93 1017.8
20260502110504 52 271 0.0 0.0 0.00 2.00 0.00 93 1017.7
20260502105505 52 271 0.0 0.0 0.00 2.05 0.00 93 1017.6
20260502105004 52 271 0.0 0.0 0.00 2.06 0.00 93 1017.4
20260502103505 52 271 0.0 0.0 0.00 2.14 0.00 93 1017.3
20260502103004 52 270 0.0 0.0 0.00 2.16 0.00 93 1017.3
20260502102505 52 270 0.0 0.0 0.00 2.19 0.00 93 1017.3
20260502101504 52 270 0.0 0.0 0.00 2.22 0.00 93 1017.2
20260502101005 52 270 0.0 0.0 0.00 2.24 0.00 93 1017.2
20260502100504 52 270 0.0 0.0 0.00 2.27 0.00 93 1017.1
20260502091504 52 269 0.0 0.0 0.00 2.38 0.00 93 1016.6
20260502091003 52 269 0.0 0.0 0.00 2.38 0.00 93 1016.5
20260502071503 53 255 0.0 0.0 0.00 2.41 0.00 93 1016.1
20260502070503 53 255 0.0 0.0 0.00 2.41 0.00 93 1015.9
20260502070004 53 251 0.0 0.0 0.00 2.41 0.00 93 1016.0
20260502065503 53 251 0.0 0.0 0.00 2.41 0.00 93 1016.0
20260502064004 53 5 0.0 0.0 0.00 2.45 0.00 93 1016.2
20260502063503 53 5 0.0 0.0 0.00 2.46 0.00 93 1016.4
20260502063004 53 1 0.0 0.0 0.00 2.48 0.00 93 1016.5
20260502062504 53 344 0.0 0.0 0.00 2.49 0.00 93 1016.5
20260502062004 53 344 0.0 0.0 0.00 2.49 0.00 93 1016.5
20260502061503 53 341 0.0 0.0 0.00 2.49 0.00 93 1016.5
20260502060004 53 345 0.0 0.0 0.00 2.50 0.00 93 1016.5
20260502055503 53 0 0.0 0.0 0.00 2.50 0.00 93 1016.6
20260502055004 53 43 0.0 0.0 0.00 2.50 0.00 93 1016.6
20260502054503 53 42 0.0 0.0 0.00 2.50 0.00 93 1016.7
20260502054004 53 30 0.0 0.0 0.00 2.50 0.00 93 1016.9
20260502053504 53 30 0.0 0.0 0.00 2.50 0.00 93 1016.8
20260502053004 53 347 0.0 0.0 0.00 2.50 0.00 93 1016.8
20260502052004 54 353 0.0 0.0 0.01 2.50 0.00 93 1017.0
20260502051504 54 341 0.0 0.0 0.01 2.50 0.00 93 1016.8
20260502051003 54 54 0.0 0.0 0.01 2.50 0.00 93 1016.8
20260502050504 54 313 0.0 0.0 0.01 2.50 0.00 93 1016.8
20260502050004 54 10 0.0 0.0 0.02 2.50 0.00 93 1016.7
20260502045503 54 67 0.0 0.0 0.02 2.50 2.50 93 1016.4
20260502045004 54 5 0.0 0.0 0.02 2.51 2.50 93 1016.4
20260502044504 54 5 0.0 0.0 0.03 2.51 2.50 93 1016.5
20260502044003 54 0 0.0 0.0 0.03 2.53 2.50 93 1016.6
20260502043503 54 351 0.0 0.0 0.04 2.55 2.50 93 1016.6
20260502043004 54 331 0.0 0.0 0.04 2.55 2.50 93 1016.4
20260502042504 54 293 0.0 0.0 0.05 2.55 2.50 93 1015.9
20260502042003 54 357 0.0 1.0 0.05 2.54 2.49 93 1015.6
20260502041504 54 26 0.0 0.0 0.06 2.54 2.49 93 1016.0
20260502041004 54 22 0.0 0.0 0.07 2.55 2.49 93 1015.9
20260502040503 54 328 0.0 0.0 0.08 2.59 2.49 93 1015.6
20260502040004 54 329 0.0 0.0 0.08 2.58 2.48 93 1015.7
20260502035504 54 4 0.0 0.0 0.09 2.58 2.48 93 1015.9
20260502035004 54 11 0.0 0.0 0.10 2.58 2.48 93 1016.0
20260502034504 54 333 0.0 0.0 0.10 2.57 2.47 93 1016.1
20260502034003 54 11 0.0 0.0 0.11 2.57 2.47 93 1015.8
20260502033505 54 297 0.0 0.0 0.10 2.56 2.46 93 1015.7
20260502033003 54 354 0.0 0.0 0.11 2.56 2.46 93 1015.2
20260502032504 55 0 0.0 0.0 0.11 2.55 2.45 93 1015.0
20260502032004 55 5 0.0 0.0 0.10 2.54 2.44 93 1015.3
20260502031504 55 0 0.0 0.0 0.09 2.53 2.43 93 1015.3
20260502031003 55 356 0.0 0.0 0.09 2.52 2.42 93 1015.3
20260502025504 55 37 0.0 0.0 0.07 2.49 2.39 93 1015.3
20260502024004 55 355 0.0 0.0 0.04 2.46 2.36 93 1014.6
20260502023504 55 5 0.0 0.0 0.05 2.46 2.36 93 1014.3
20260502023005 55 0 0.0 0.0 0.04 2.45 2.35 93 1014.4
20260502021504 55 23 0.0 0.0 0.06 2.44 2.34 93 1014.4
20260502021004 55 19 0.0 0.0 0.05 2.43 2.33 93 1013.8
20260502020503 55 351 0.0 0.0 0.06 2.43 2.33 93 1013.6
20260502015004 55 18 0.0 0.0 0.07 2.42 2.32 93 1013.7
20260502014004 55 123 0.0 0.0 0.10 2.42 2.32 93 1013.6
20260502013503 55 56 0.0 0.0 0.11 2.41 2.31 93 1013.1
20260502013004 55 291 0.0 0.0 0.12 2.41 2.31 93 1013.0
20260502012504 55 312 0.0 0.0 0.12 2.40 2.30 93 1012.6
20260502012005 55 2 0.0 0.0 0.11 2.39 2.29 93 1012.3
20260502011503 55 13 0.0 0.0 0.10 2.38 2.28 93 1012.6
20260502011005 55 2 0.0 0.0 0.10 2.38 2.28 93 1012.7
20260502010504 55 19 0.0 0.0 0.09 2.37 2.27 93 1012.5
20260502010003 55 334 0.0 0.0 0.08 2.36 2.26 93 1012.5
20260502005504 56 347 0.0 0.0 0.08 2.36 2.26 93 1012.7
20260502005004 56 324 0.0 0.0 0.07 2.35 2.25 93 1013.0
20260502004503 56 324 0.0 0.0 0.06 2.33 2.23 93 1013.2
20260502004004 56 339 0.0 0.0 0.05 2.32 2.22 93 1013.5
20260502003504 56 344 0.0 0.0 0.05 2.30 2.20 93 1013.7
20260502002503 56 334 0.0 0.0 0.07 2.28 2.18 93 1013.2
20260502002003 56 337 0.0 0.0 0.10 2.28 2.18 93 1012.8
20260502001504 56 353 0.0 0.0 0.12 2.28 2.18 92 1012.2
20260502000504 57 344 0.0 0.0 0.15 2.28 2.18 93 1011.9
20260501235504 57 337 0.0 0.0 0.17 2.28 2.18 93 1012.0
20260501235004 57 259 0.0 0.0 0.19 2.28 2.18 93 1011.8
20260501234504 57 330 0.0 0.0 0.19 2.27 2.17 93 1011.8
20260501234004 57 54 0.0 0.0 0.21 2.27 2.17 93 1012.2
20260501233503 57 355 0.0 0.0 0.21 2.25 2.15 93 1012.3
20260501233004 57 49 0.0 0.0 0.22 2.24 2.14 93 1012.7
20260501232504 57 298 0.0 0.0 0.23 2.21 2.11 93 1013.1
20260501232004 58 289 0.0 0.0 0.23 2.18 2.08 93 1012.8
20260501231503 58 19 0.0 0.0 0.24 2.16 2.06 93 1012.8
20260501231004 58 4 0.0 0.0 0.26 2.15 2.05 93 1013.1
20260501230504 58 5 0.0 0.0 0.26 2.13 2.03 93 1013.1
20260501225504 58 267 0.0 0.0 0.28 2.11 2.01 93 1012.8
20260501225004 58 348 0.0 0.0 0.27 2.09 1.99 93 1012.5
20260501224504 58 326 0.0 0.0 0.27 2.08 1.98 93 1012.3
20260501224004 58 326 0.0 0.0 0.27 2.06 1.96 93 1012.2
20260501223503 58 328 0.0 0.0 0.26 2.04 1.94 93 1012.2
20260501222504 58 314 0.0 0.0 0.25 1.98 1.88 93 1012.8
20260501222004 58 314 0.0 0.0 0.25 1.95 1.85 93 1012.7
20260501221503 58 261 0.0 0.0 0.25 1.92 1.82 93 1011.9
20260501215503 58 263 0.0 0.0 0.24 1.83 1.73 93 1012.7
20260501215004 58 299 0.0 0.0 0.24 1.82 1.72 93 1012.2
20260501214504 58 296 0.0 0.0 0.23 1.81 1.71 93 1012.2
20260501214004 58 297 0.0 0.0 0.21 1.79 1.69 93 1011.7
20260501213503 58 325 0.0 0.0 0.21 1.78 1.68 93 1011.8
20260501213005 58 325 0.0 0.0 0.19 1.75 1.65 93 1012.2
20260501212504 58 325 0.0 0.0 0.18 1.73 1.63 93 1012.2
20260501212004 58 325 0.0 0.0 0.16 1.70 1.60 93 1011.9
20260501211504 58 5 0.0 0.0 0.14 1.67 1.57 93 1011.6
20260501211004 58 5 0.0 0.0 0.14 1.64 1.54 93 1011.7
20260501210504 58 5 0.0 0.0 0.14 1.62 1.52 93 1011.5
20260501210004 58 349 0.0 0.0 0.13 1.60 1.50 93 1010.9
20260501205503 58 336 0.0 0.0 0.13 1.59 1.49 93 1010.6
20260501205004 58 299 0.0 0.0 0.12 1.58 1.48 93 1010.3
20260501204504 58 241 0.0 0.0 0.12 1.58 1.48 93 1009.8
20260501203504 58 255 0.0 0.0 0.12 1.57 1.47 93 1009.6
20260501202503 58 14 0.0 0.0 0.10 1.55 1.45 93 1010.4
20260501202004 58 302 0.0 0.0 0.09 1.54 1.44 93 1011.2
20260501201504 58 300 0.0 0.0 0.08 1.53 1.43 93 1011.3
20260501201004 59 221 0.0 0.0 0.05 1.50 1.40 93 1011.1
20260501200503 58 287 0.0 0.0 0.03 1.48 1.38 93 1011.4
20260501200005 58 311 0.0 0.0 0.02 1.47 1.37 93 1011.3
20260501195504 59 136 0.0 0.0 0.01 1.46 1.36 93 1010.6
20260501195003 59 320 0.0 0.0 0.01 1.46 1.36 93 1010.1
20260501194004 59 327 0.0 0.0 0.00 1.45 1.35 93 1010.5
20260501193504 59 352 0.0 0.0 0.00 1.45 1.35 93 1010.6
20260501192504 60 41 0.0 0.0 0.01 1.45 1.35 93 1010.7
20260501192004 60 43 0.0 0.0 0.01 1.45 1.35 93 1010.8
20260501191504 60 326 0.0 1.0 0.01 1.45 1.35 93 1011.0
20260501191004 60 333 0.0 0.0 0.01 1.45 1.35 93 1011.2
20260501190504 60 12 0.0 0.0 0.02 1.45 1.35 93 1011.2
20260501190004 60 331 0.0 0.0 0.03 1.45 1.35 93 1011.1
20260501185504 60 336 0.0 0.0 0.04 1.45 1.35 93 1010.9
20260501184504 60 62 0.0 0.0 0.08 1.45 1.35 93 1010.8
20260501184004 60 337 0.0 0.0 0.09 1.45 1.35 93 1011.0
20260501183504 60 30 0.0 0.0 0.11 1.45 1.35 93 1011.4
20260501182504 60 318 0.0 0.0 0.13 1.44 1.34 93 1011.6
20260501182004 60 61 0.0 0.0 0.14 1.44 1.34 93 1011.6
20260501181504 60 327 0.0 0.0 0.15 1.44 1.34 93 1011.5
20260501181004 60 311 0.0 0.0 0.16 1.44 1.34 93 1011.0
20260501180503 60 333 0.0 0.0 0.17 1.43 1.33 93 1011.4
20260501180004 60 3 0.0 0.0 0.17 1.42 1.32 93 1011.2
20260501175504 60 351 0.0 0.0 0.17 1.41 1.31 93 1011.2
20260501175004 60 349 0.0 0.0 0.17 1.39 1.29 93 1011.5
20260501174503 60 321 0.0 0.0 0.17 1.37 1.27 93 1012.3
20260501174004 60 9 0.0 0.0 0.17 1.36 1.26 93 1012.3
20260501173504 61 48 0.0 0.0 0.15 1.34 1.24 93 1012.1
20260501172504 61 125 0.0 0.0 0.12 1.31 1.21 93 1013.3
20260501172003 61 331 0.0 0.0 0.11 1.30 1.20 93 1013.0
20260501171504 61 349 0.0 0.0 0.10 1.29 1.19 93 1012.7
20260501171004 61 355 0.0 0.0 0.09 1.28 1.18 93 1012.0
20260501170504 61 4 0.0 0.0 0.07 1.26 1.16 93 1012.6
20260501170004 61 4 0.0 0.0 0.06 1.25 1.15 93 1012.7
20260501165504 61 27 0.0 0.0 0.06 1.24 1.14 93 1012.8
20260501165004 61 340 0.0 0.0 0.04 1.22 1.12 93 1012.9
20260501164504 61 352 0.0 0.0 0.02 1.20 1.10 93 1013.5
20260501164004 61 316 0.0 0.0 0.01 1.19 1.09 93 1013.5
20260501163504 61 348 0.0 0.0 0.01 1.19 1.09 93 1012.9